Location: Unspecified
(0.0000°N, 0.0000°E)
Time: 18:02:36
(UTC+00:00)

Envisat - Pass Details

Date: 01 October 2022
Orbit: 764 x 765 km, 98.2° (Epoch: 26 September)

Event Time Altitude Azimuth Distance (km) Brightness Sun altitude
Rises 03:45:05 0° 17° (NNE) 3,213 6.4 -31.1°
Reaches altitude 10° 03:47:23 10° 19° (NNE) 2,290 5.6 -30.5°
Enters shadow 03:51:55 64° 65° (ENE) 844 3.3 -29.4°
Exits shadow 03:57:33 10° 185° (S) 2,338 5.5 -28.0°
Sets 03:59:46 0° 187° (S) 3,229 6.2 -27.5°
